map of LOS home
LOS - Airport
Location
City:  Lagos, Lagos, Nigeria
Name:Murtala Muhammed International Airport
ICAO:DNMM
IATA:LOS

Details
Type:Airport (Aerodrome, Airfield)
Use:Public/Civil, Military, International (customs port of entry)
Latitude:634'39"N (6.577369)
Longitude:319'16"E (3.321156)
Datum:WGS 1984
Elevation:135 ft (41 m)
Variation:2.14W (WMM2015 magnetic declination)
0.10 annual change
Runways:2
Longest:12794 × 197 ft (3900 × 60 m), paved

Time
Time Zone:UTC+1
Local Time:

Weather
METAR:DNMM 251400Z 21007KT 9999 BKN013 FEW020CB 30/25 Q1011 NOSIG
TAF:DNMM 250955Z 2512/2618 21040KT 9999 BKN013 FEW020CB
TEMPO 2513/2518 5000 -TSRA BKN008 FEW019CB
BECMG 2518/2520 VRB02KT SCT009
TEMPO 2605/2607 5000 BR

Related Locations
Nearby:
Farthest:FUN: 12133 mi / 19527 km
Funafuti Atoll [Intl], TV

Find:

   beyond  
but within

Other Information
Maps:
NOTAMs:
Links:
Sources:

  
  • flag of Nigeria
  

Sectional Chart

Flight Planning
at skyvector.com

Satellite Image

Google Maps Satellite view

 

Copyright © 2004-2018 Karl L. Swartz. All rights reserved.
The Great Circle Mapper name and logo are trademarks of the Great Circle Mapper.
All other trademarks mentioned herein belong to their respective owners.
Please see credits for attibutions and further copyright information.

  Follow gcmap on Facebook Follow gcmap on Twitter Follow gcmap on Google+ GCmap on LinkedIn

hCard Microformat

Geo Microformat